564  
NZUS93 KARX 181059  
HRRWXR  
 
CURRENT HOURLY OBSERVATIONS ACROSS  
MUCH OF THE UPPER MISSISSIPPI VALLEY  
NATIONAL WEATHER SERVICE LA CROSSE WI  
500 AM CST TUE DEC 18 2018  
 
   
..SOUTHEAST MINNESOTA
 
 
 
CITY SKY/WX TMP DP RH WIND PRES REMARKS  
ROCHESTER FAIR 28 21 75 S14 30.00F WCI 17  
ROCHESTER/MAYO FAIR 31 21 65 SE15G21 30.01F WCI 20  
WINONA FAIR 25 21 86 S6 30.08F WCI 18  
AUSTIN FAIR 30 23 74 S12 30.00F WCI 21  
ALBERT LEA FAIR 32 25 74 S9 29.98F WCI 24  
DODGE CENTER FAIR 28 23 80 S17 29.97F WCI 16  
PRESTON FAIR 26 19 76 S9 30.05F WCI 17  
OWATONNA FAIR 32 25 74 S16 29.96F WCI 21  
FARIBAULT NOT AVBL  

 
   
..ELSEWHERE IN MINNESOTA
 
 
 
CITY SKY/WX TMP DP RH WIND PRES REMARKS  
MINNEAPOLIS FAIR 31 23 72 SE7 29.93F WCI 24  
INTNL FALLS FAIR 14 11 87 SE9 29.89F WCI 2  
DULUTH FAIR 26 14 60 SE15 29.92F WCI 14  
RED WING FAIR 32 18 55 SE13 29.98F WCI 22  
REDWOOD FALLS CLOUDY 27 24 89 S9 29.87F WCI 18  
MANKATO FAIR 34 26 72 S13 29.93F WCI 25  
WORTHINGTON CLOUDY 34 27 75 S21 29.88F WCI 22  
FAIRMONT CLOUDY 33 26 75 S18 29.93F WCI 22  

 
   
..SOUTHWEST WISCONSIN
 
 
 
CITY SKY/WX TMP DP RH WIND PRES REMARKS  
LA CROSSE FAIR 25 17 72 SE7 30.10F WCI 17  
PRAIRIE DU CHI FAIR 24 20 83 SE3 30.15F  
BOSCOBEL FAIR 19 17 92 CALM 30.17F  
LONE ROCK FAIR 20 18 92 E3 30.18F  
PLATTEVILLE FAIR 27 23 85 SE8 30.16F WCI 19  
FORT MC COY FAIR 13 12 94 CALM 30.13F  
CAMP DOUGLAS FAIR 15 14 98 SE5 30.14F WCI 7  
MAUSTON-NEW LI FAIR 18 16 90 SE3 30.14F  
VIROQUA N/A 24 20 83 SE9 30.10F WCI 14  
WIS DELLS FAIR 20 16 84 SE3 30.16F  

 
   
..ELSEWHERE IN WISCONSIN
 
 
 
CITY SKY/WX TMP DP RH WIND PRES REMARKS  
MILWAUKEE FAIR 23 16 74 CALM 30.21F  
MADISON FAIR 19 16 88 CALM 30.19F  
GREEN BAY FAIR 19 16 88 CALM 30.20F  
EAU CLAIRE NOT AVBL  
BLACK RVR FLS FAIR 10 7 87 CALM 30.11F  
MEDFORD FAIR 20 13 72 SE7 30.08F WCI 12  
WAUSAU FAIR 17 12 80 SE7 30.12F WCI 8  
WIS RAPIDS FAIR 18 11 74 SE5 30.15F WCI 11  
MARSHFIELD FAIR 19 13 77 SE7 30.10F WCI 10  
RICE LAKE FAIR 24 16 72 SE14 30.01F WCI 12  

 
   
..NORTHEAST IOWA
 
 
 
CITY SKY/WX TMP DP RH WIND PRES REMARKS  
WATERLOO FAIR 28 21 75 SE7 30.09F WCI 21  
DUBUQUE FAIR 28 22 78 S10 30.15F WCI 19  
DECORAH FAIR 28 25 86 SE8G15 30.07F WCI 20  
MASON CITY CLOUDY 28 25 88 S10 30.02F WCI 19  
CHARLES CITY FAIR 30 23 74 S10 30.06F WCI 21  
OELWEIN NOT AVBL  

 
   
..ELSEWHERE IN IOWA
 
 
 
CITY SKY/WX TMP DP RH WIND PRES REMARKS  
DES MOINES CLOUDY 31 25 78 S8 30.08F WCI 23  
IOWA CITY FAIR 26 21 81 CALM 30.18S  
FORT DODGE CLOUDY 33 26 75 S8 30.02F WCI 26  
MARSHALLTOWN CLOUDY 29 23 78 SE9 30.07F WCI 20  
CEDAR RAPIDS FAIR 27 22 81 SE8 30.13F WCI 19  

 
   
..NORTHERN ILLINOIS
 
 
 
CITY SKY/WX TMP DP RH WIND PRES REMARKS  
CHICAGO-OHARE FAIR 25 21 85 CALM 30.22R  
CHICAGO-MIDWAY FAIR 23 22 96 S3 30.24R  
MOLINE FAIR 29 23 78 E3 30.19S  
ROCKFORD FAIR 22 18 85 CALM 30.22F  
PEORIA FAIR 26 23 88 CALM 30.23S  

 
 
NOTE: "FAIR" INDICATES FEW OR NO CLOUDS BELOW 12,000 FEET WITH NO  
SIGNIFICANT WEATHER AND/OR OBSTRUCTIONS TO VISIBILITY. WIND  
SPEEDS ARE IN MILES-PER-HOUR.  
 
 
CLICK HERE TO GO TO PREVIOUS BULLETINS.

The Nexlab WI Page
The Nexlab IA Page
The Nexlab MN Page Main Text Page